FW4287 Weather Reports


Display with metric or nautical units.
time (UTC)temp
F
wind
direction
speed
MPH
gust
MPH
rain 1hr
in
rain 24hr
in
rain mn
in
humidity
%
barometer
mb
20260508051529 57 195 5.0 8.0 0.00 0.00 0.00 40 1017.8
20260508050029 58 200 7.0 12.0 0.00 0.00 0.00 37 1017.8
20260508043032 58 197 7.0 14.0 0.00 0.00 0.00 35 1017.7
20260508041530 59 205 5.0 9.0 0.00 0.00 0.00 33 1017.7
20260508040032 59 207 6.0 10.0 0.00 0.00 0.00 34 1017.4
20260508034532 60 213 6.0 12.0 0.00 0.00 0.00 34 1017.4
20260508031531 61 212 7.0 13.0 0.00 0.00 0.00 31 1017.1
20260508030105 62 211 8.0 17.0 0.00 0.00 0.00 30 1017.1
20260508024530 63 226 8.0 15.0 0.00 0.00 0.00 31 1017.0
20260508023031 64 226 6.0 13.0 0.00 0.00 0.00 30 1016.9
20260508021529 65 226 7.0 14.0 0.00 0.00 0.00 30 1016.7
20260508020029 66 233 7.0 16.0 0.00 0.00 0.00 29 1016.7
20260508013103 68 245 8.0 18.0 0.00 0.00 0.00 28 1016.7
20260508010032 69 239 9.0 16.0 0.00 0.00 0.00 25 1016.8
20260508004529 69 222 10.0 18.0 0.00 0.00 0.00 24 1016.7
20260508003030 69 230 11.0 20.0 0.00 0.00 0.00 23 1016.7
20260508000028 70 220 11.0 20.0 0.00 0.00 0.00 23 1016.6
20260507234531 70 216 9.0 18.0 0.00 0.00 0.00 23 1016.6
20260507233028 70 218 10.0 19.0 0.00 0.00 0.00 23 1016.7
20260507231638 69 224 10.0 21.0 0.00 0.00 0.00 24 1016.9
20260507230030 69 221 8.0 18.0 0.00 0.00 0.00 24 1017.0
20260507224607 69 237 9.0 17.0 0.00 0.00 0.00 24 1017.0
20260507223029 69 217 11.0 20.0 0.00 0.00 0.00 25 1017.2
20260507221604 69 211 9.0 18.0 0.00 0.00 0.00 26 1017.4
20260507214529 70 208 10.0 21.0 0.00 0.00 0.00 27 1017.5
20260507213030 69 189 6.0 17.0 0.00 0.00 0.00 35 1017.5
20260507211540 68 5 5.0 10.0 0.00 0.00 0.00 38 1017.6
20260507210107 69 246 6.0 11.0 0.00 0.00 0.00 29 1017.8
20260507204533 69 202 9.0 17.0 0.00 0.00 0.00 30 1017.8
20260507203032 68 254 6.0 16.0 0.00 0.00 0.00 35 1017.9
20260507201531 68 275 7.0 17.0 0.00 0.00 0.00 32 1018.0
20260507200031 68 197 11.0 17.0 0.00 0.00 0.00 29 1018.2
20260507194531 68 208 10.0 16.0 0.00 0.00 0.00 30 1018.2
20260507193106 66 222 8.0 15.0 0.00 0.00 0.00 35 1018.4
20260507191530 66 294 4.0 17.0 0.00 0.00 0.00 36 1018.4
20260507190029 66 265 4.0 7.0 0.00 0.00 0.00 34 1018.6
20260507184538 65 240 6.0 14.0 0.00 0.00 0.00 32 1018.8
20260507183046 65 203 8.0 13.0 0.00 0.00 0.00 34 1018.9
20260507181530 64 175 6.0 14.0 0.00 0.00 0.00 44 1018.9
20260507180031 62 277 3.0 10.0 0.00 0.00 0.00 54 1019.0
20260507174532 59 316 3.0 7.0 0.00 0.00 0.00 59 1019.2
20260507173029 59 9 8.0 12.0 0.00 0.00 0.00 60 1019.3
20260507171533 60 299 5.0 12.0 0.00 0.00 0.00 58 1019.4
20260507170109 57 39 5.0 10.0 0.00 0.00 0.00 62 1019.5
20260507164532 59 45 6.0 14.0 0.00 0.00 0.00 55 1019.5
20260507163033 58 213 6.0 12.0 0.00 0.00 0.00 55 1019.5
20260507161532 57 213 8.0 13.0 0.00 0.00 0.00 58 1019.6
20260507160145 57 201 5.0 12.0 0.00 0.00 0.00 60 1019.8
20260507154532 57 181 5.0 12.0 0.00 0.00 0.00 62 1019.8
20260507153034 56 185 4.0 11.0 0.00 0.00 0.00 64 1019.9
20260507150048 53 37 3.0 7.0 0.00 0.00 0.00 75 1019.9
20260507144534 51 27 6.0 9.0 0.00 0.00 0.00 78 1019.8
20260507141606 53 327 2.0 9.0 0.00 0.00 0.00 71 1019.7
20260507140031 53 225 7.0 16.0 0.00 0.00 0.00 72 1019.5
20260507134608 52 218 8.0 17.0 0.00 0.00 0.00 73 1019.4
20260507133028 52 186 5.0 14.0 0.00 0.00 0.00 75 1019.4
20260507131531 52 184 7.0 15.0 0.00 0.00 0.00 75 1019.3
20260507130031 52 208 8.0 18.0 0.00 0.00 0.00 75 1019.3
20260507124530 52 205 11.0 21.0 0.00 0.00 0.00 75 1019.3
20260507123029 52 210 11.0 19.0 0.00 0.00 0.00 75 1019.3
20260507121530 53 227 9.0 19.0 0.00 0.00 0.00 75 1019.3
20260507120031 53 228 10.0 18.0 0.00 0.00 0.00 75 1019.2
20260507113031 53 211 13.0 23.0 0.00 0.00 0.00 75 1019.1
20260507111530 53 214 10.0 20.0 0.00 0.00 0.00 75 1019.0
20260507110031 54 198 12.0 21.0 0.00 0.00 0.00 75 1019.0
20260507103107 54 193 10.0 18.0 0.00 0.00 0.00 74 1019.2
20260507101606 54 200 9.0 20.0 0.00 0.00 0.00 73 1019.2
20260507094608 55 185 10.0 20.0 0.00 0.00 0.00 71 1019.2
20260507093032 56 185 10.0 19.0 0.00 0.00 0.00 70 1019.2
20260507091530 56 179 11.0 20.0 0.00 0.00 0.00 70 1019.3
20260507090031 55 185 10.0 21.0 0.00 0.00 0.00 71 1019.4
20260507084652 55 171 8.0 16.0 0.00 0.00 0.00 72 1019.5
20260507081604 55 186 5.0 15.0 0.00 0.00 0.00 73 1019.7
20260507080108 56 195 7.0 14.0 0.00 0.00 0.00 73 1019.8
20260507074531 56 214 8.0 16.0 0.00 0.00 0.00 72 1019.9
20260507073032 57 215 9.0 16.0 0.00 0.00 0.00 72 1019.9
20260507071531 57 214 9.0 17.0 0.00 0.00 0.00 71 1019.9
20260507070030 57 218 9.0 15.0 0.00 0.00 0.00 71 1019.8
20260507064532 58 211 9.0 18.0 0.00 0.00 0.00 71 1020.0
20260507063031 58 212 8.0 15.0 0.00 0.00 0.00 71 1020.0
20260507061608 58 208 6.0 15.0 0.00 0.00 0.00 71 1020.0
20260507060031 58 202 7.0 16.0 0.00 0.00 0.00 71 1020.1
20260507054610 58 204 7.0 13.0 0.00 0.00 0.00 72 1020.2
20260507053107 58 204 7.0 13.0 0.00 0.00 0.00 72 1020.3